LFOCLFLC

Guest
Details From LFOC - Chateaudun AB
To LFLC - Clermont-Ferrand_Auvergne
Flight Number -
Tags generated
Created
Modified
Stats Distance 156 nm / 288 km
Max Altitude 19,600 ft / 5,974 m
Waypoints 3
Social Downloads 0
Likes 0
Share VATSIM

Download

Looking for another format? Having issues loading an existing format? Contact us
Advertisement - Login to hide

Notes

Basic altitude profile: - Ascent Rate: 2500ft/min - Ascent Speed: 250kts - Cruise Altitude: 8000ft - Cruise Speed: 150kts - Descent Rate: 1500ft/min - Descent Speed: 250kts Options: - Use NATs: yes - Use PACOTS: no - Use low airways: yes - Use high airways: no

Route

LFOC DEPOM LFLC

ID Type Via Altitude Latitude Longitude Leg Dist Tot Dist Heading (true) Name
O LFOC APT - 0 ft / 0 m 48.05814˚ 1.37662˚ - 0 nm - Chateaudun AB
DEPOM FIX - 19,600 ft / 5,974 m 47.31778˚ 2.17917˚ 55 nm 55 nm 144° / 144° -
O LFLC APT - 0 ft / 0 m 45.78671˚ 3.16997˚ 100 nm 155 nm 156° / 156° Clermont-Ferrand_Auvergne

Altitude Profile

Advertisement - Login to hide

LFOC

Details ICAO LFOC
Name Chateaudun AB
Region France
Timezone Europe/Paris (UTC+1.0)
Stats Elevation 433 ft / 132 m (AMSL)
Location 48.058141° 1.376625°
Runways 1
Magnetic Variation 0.345° E

METAR

LFOC 151830Z AUTO 31013KT 9999 SCT026 BKN041 OVC120 04/02 Q1003

Decode

TAF

TAF LFOC 151603Z 1516/1615 CNL

Decode

Departure Runways

ID Width Length Bearing (true) Bearing (mag) Surface Threshold Offset Overrun Length
10 148 ft / 45 m 7,532 ft / 2,296 m 98.03° 97.68° Asphalt 0 ft / 0 m 673 ft / 205 m
28 148 ft / 45 m 7,532 ft / 2,296 m 278.06° 277.71° Asphalt 0 ft / 0 m 663 ft / 202 m

LFLC

Details ICAO LFLC (CFE)
Name Clermont-Ferrand_Auvergne
Region France
Timezone Europe/Paris (UTC+1.0)
Stats Elevation 1,089 ft / 332 m (AMSL)
Location 45.786712° 3.169967°
Runways 1
Magnetic Variation 0.980° E

METAR

LFLC 151830Z AUTO 26005KT 210V330 9999 BKN029 BKN034 BKN046 05/01 Q1003 TEMPO RA

Decode

TAF

TAF LFLC 151400Z 1515/1615 23010KT 9999 BKN030 BKN040 PROB30 TEMPO 1518/1522 30012KT RA SCT020 BKN030 PROB30 TEMPO 1602/1614 34012KT SHRA

Decode

Destination Runways

ID Width Length Bearing (true) Bearing (mag) Surface Threshold Offset Overrun Length
08 148 ft / 45 m 9,878 ft / 3,011 m 81.95° 80.97° Asphalt 0 ft / 0 m 0 ft / 0 m
26 148 ft / 45 m 9,878 ft / 3,011 m 261.98° 261.00° Asphalt 476 ft / 145 m 0 ft / 0 m

Approach Navaids

Runway Type Ident Frequency Range Bearing (true) Bearing (mag) Slope Elevation
26 Localiser CF 111.10 MHz 27 nm / 50 km 261.98° 261.00° - 1,089 ft / 332 m (AMSL)
26 Glidescope CF 111.10 MHz 27 nm / 50 km 261.98° 261.00° 3.00° 1,089 ft / 332 m (AMSL)
26 DME CF 111.10 MHz 27 nm / 50 km - - - 1,089 ft / 332 m (AMSL)

Popular Alternatives